Regional Weather Roundup
Issued by NWS

Home | Current Version | Previous Version | Graphics & Text | Print | Product List | Glossary On
Versions: 1 2 3 4 5 6 7 8 9 10 11 12 13 14 15 16 17 18 19 20 21 22 23 24 25 26 27 28 29 30 31 32 33 34 35 36 37 38 39 40 41 42 43 44 45 46 47 48 49 50
000
ASUS43 KFSD 211210
RWRSD

WEATHER ROUNDUP FOR SOUTH DAKOTA
NATIONAL WEATHER SERVICE SIOUX FALLS SD
600 AM CST TUE NOV 21 2017

NOTE: "FAIR" INDICATES FEW OR NO CLOUDS BELOW 12,000 FEET WITH NO
SIGNIFICANT WEATHER AND/OR OBSTRUCTIONS TO VISIBILITY.


SDZ001>005-009-010-012>017-211300-
NORTHWEST AND NORTH CENTRAL SOUTH DAKOTA

CITY           SKY/WX    TMP DP  RH WIND       PRES   REMARKS
BUFFALO          N/A     16   4  59 N21       30.13R WCI  -1
FAITH            N/A     12   1  61 NW22      30.19R WCI  -7
MOBRIDGE       CLOUDY    14   4  64 NW21G39   30.15R WCI  -4
$$

SDZ012>016-024>037-041>051-057-063-072>074-211300-
SOUTHWEST AND SOUTH CENTRAL SOUTH DAKOTA

CITY           SKY/WX    TMP DP  RH WIND       PRES   REMARKS
RAPID CTY ARPT CLOUDY    28  22  78 N21       30.16R WCI  15
PIERRE         FLURRIES  16   4  59 N18G28    30.19R WCI   0
CUSTER         CLOUDY    26  19  74 N7        30.08R WCI  18
ELLSWORTH AFB  CLOUDY    29  26  86 N17G24    30.15R WCI  17
PHILIP         CLOUDY    25  17  72 N16       30.19R WCI  12
PINE RIDGE     CLOUDY    30  26  85 N8        30.17R WCI  22
SPEARFISH      CLOUDY    27  23  86 W14G20    30.18R WCI  15
WINNER         CLOUDY    26  18  71 N22G28    30.14R WCI  12
$$

SDZ004>011-016>023-039-040-211300-
NORTHEAST SOUTH DAKOTA

CITY           SKY/WX    TMP DP  RH WIND       PRES   REMARKS
ABERDEEN       CLEAR     15   6  67 NW20      30.12R WCI  -2
WATERTOWN      CLOUDY    16   8  71 NW23G35   30.00R WCI  -2
BROOKINGS      FLURRIES  17   9  70 NW25G31   29.99R WCI  -1
SISSETON         N/A     18   9  68 NW29G40   30.01R WCI  -1
$$

SDZ017-020-022-023-036>040-048>070-211300-
SOUTHEAST SOUTH DAKOTA

CITY           SKY/WX    TMP DP  RH WIND       PRES   REMARKS
SIOUX FALLS    MOCLDY    22   9  57 NW21G33   30.01R WCI   6
HURON          CLEAR     15   6  67 NW21G33   30.12R WCI  -2
CHAMBERLAIN    CLEAR     24   9  53 NW23      30.14R WCI   8
MITCHELL       PTCLDY    20   6  55 NW30G38   30.12R WCI   1
YANKTON        CLOUDY    34   7  32 NW23G32   30.03R WCI  22
$$

ABBREVIATIONS USED IN REMARKS
   TC - TEMPERATURE IN CELSIUS
  WCI - WIND CHILL INDEX
   HX - HEAT INDEX
  VSB - VISIBILITY





USA.gov is the U.S. government's official web portal to all federal, state and local government web resources and services.